TimeCST,TemperatureF,Dew PointF,Humidity,Sea Level PressureIn,VisibilityMPH,Wind Direction,Wind SpeedMPH,Gust SpeedMPH,PrecipitationIn,Events,Conditions,WindDirDegrees,DateUTC
12:15 AM,15.8,8.6,73,30.27,10.0,NW,12.7,17.3,N/A,,Clear,310,2013-01-24 06:15:00
12:35 AM,15.8,5.0,62,30.29,10.0,NW,11.5,17.3,N/A,,Clear,310,2013-01-24 06:35:00
12:55 AM,15.8,5.0,62,30.30,10.0,NW,13.8,17.3,N/A,,Clear,320,2013-01-24 06:55:00
1:15 AM,14.0,5.0,67,30.32,10.0,NW,11.5,-,N/A,,Clear,310,2013-01-24 07:15:00
1:35 AM,14.0,6.8,73,30.34,10.0,NW,11.5,16.1,N/A,,Scattered Clouds,310,2013-01-24 07:35:00
1:55 AM,14.0,8.6,79,30.36,7.0,NW,12.7,18.4,N/A,,Mostly Cloudy,320,2013-01-24 07:55:00
2:15 AM,14.0,8.6,79,30.37,3.0,NW,13.8,17.3,N/A,Snow,Light Snow,310,2013-01-24 08:15:00
2:35 AM,14.0,8.6,79,30.38,7.0,NW,13.8,19.6,N/A,Snow,Light Snow,310,2013-01-24 08:35:00
2:55 AM,12.2,8.6,85,30.39,4.0,NW,11.5,16.1,N/A,Snow,Light Snow,310,2013-01-24 08:55:00
3:15 AM,12.2,8.6,85,30.40,5.0,NW,10.4,17.3,N/A,,Haze,310,2013-01-24 09:15:00
3:35 AM,12.2,5.0,73,30.41,10.0,NW,13.8,18.4,N/A,,Scattered Clouds,310,2013-01-24 09:35:00
3:55 AM,12.2,5.0,73,30.41,7.0,NW,10.4,16.1,N/A,Snow,Light Snow,320,2013-01-24 09:55:00
4:15 AM,10.4,5.0,79,30.42,10.0,NW,9.2,-,N/A,,Scattered Clouds,320,2013-01-24 10:15:00
4:35 AM,12.2,5.0,73,30.44,4.0,NNW,9.2,16.1,N/A,Snow,Light Snow,330,2013-01-24 10:35:00
4:55 AM,10.4,5.0,79,30.45,7.0,NNW,5.8,-,N/A,Snow,Light Snow,340,2013-01-24 10:55:00
5:15 AM,10.4,5.0,79,30.47,10.0,NNW,5.8,-,N/A,,Mostly Cloudy,340,2013-01-24 11:15:00
5:35 AM,10.4,5.0,79,30.48,5.0,North,5.8,-,N/A,Snow,Light Snow,350,2013-01-24 11:35:00
5:55 AM,10.4,5.0,79,30.49,10.0,NNW,3.5,-,N/A,,Scattered Clouds,330,2013-01-24 11:55:00
6:15 AM,10.4,5.0,79,30.50,10.0,NW,3.5,-,N/A,,Mostly Cloudy,320,2013-01-24 12:15:00
6:35 AM,8.6,3.2,79,30.50,10.0,Calm,Calm,-,N/A,,Scattered Clouds,0,2013-01-24 12:35:00
6:55 AM,6.8,3.2,85,30.50,10.0,Calm,Calm,-,N/A,,Clear,0,2013-01-24 12:55:00
7:15 AM,6.8,3.2,85,30.51,10.0,Calm,Calm,-,N/A,,Scattered Clouds,0,2013-01-24 13:15:00
7:35 AM,10.4,5.0,79,30.52,4.0,Calm,Calm,-,N/A,Snow,Light Snow,0,2013-01-24 13:35:00
7:55 AM,10.4,5.0,79,30.54,2.5,WSW,3.5,-,N/A,Snow,Light Snow,250,2013-01-24 13:55:00
8:15 AM,12.2,5.0,73,30.55,7.0,West,4.6,-,N/A,Snow,Light Snow,270,2013-01-24 14:15:00
8:35 AM,12.2,6.8,79,30.57,10.0,WNW,6.9,-,N/A,,Clear,300,2013-01-24 14:35:00
8:55 AM,14.0,8.6,79,30.59,10.0,NW,8.1,-,N/A,,Clear,310,2013-01-24 14:55:00
9:15 AM,14.0,8.6,79,30.59,10.0,NNW,5.8,-,N/A,,Clear,330,2013-01-24 15:15:00
9:35 AM,15.8,10.4,79,30.60,10.0,NNW,5.8,-,N/A,,Clear,340,2013-01-24 15:35:00
9:55 AM,17.6,10.4,73,30.61,10.0,North,4.6,-,N/A,,Clear,350,2013-01-24 15:55:00
10:15 AM,17.6,12.2,79,30.61,10.0,NNE,5.8,-,N/A,,Clear,30,2013-01-24 16:15:00
10:35 AM,19.4,14.0,80,30.61,10.0,ENE,4.6,-,N/A,,Clear,60,2013-01-24 16:35:00
10:55 AM,19.4,14.0,80,30.60,10.0,ENE,9.2,-,N/A,,Clear,70,2013-01-24 16:55:00
11:15 AM,19.4,12.2,74,30.60,10.0,ENE,6.9,-,N/A,,Clear,70,2013-01-24 17:15:00
11:35 AM,21.2,12.2,68,30.59,10.0,East,8.1,-,N/A,,Clear,90,2013-01-24 17:35:00
11:55 AM,21.2,10.4,63,30.58,10.0,ENE,8.1,-,N/A,,Clear,70,2013-01-24 17:55:00
12:15 PM,21.2,8.6,58,30.58,10.0,East,8.1,-,N/A,,Clear,90,2013-01-24 18:15:00
12:35 PM,21.2,6.8,54,30.57,10.0,East,9.2,-,N/A,,Clear,80,2013-01-24 18:35:00
12:55 PM,23.0,5.0,46,30.56,10.0,East,6.9,-,N/A,,Clear,80,2013-01-24 18:55:00
1:35 PM,23.0,5.0,46,30.55,10.0,ENE,5.8,-,N/A,,Clear,70,2013-01-24 19:35:00
1:55 PM,23.0,1.4,39,30.54,10.0,East,5.8,-,N/A,,Clear,90,2013-01-24 19:55:00
2:15 PM,23.0,3.2,43,30.53,10.0,East,9.2,-,N/A,,Clear,90,2013-01-24 20:15:00
2:35 PM,23.0,1.4,39,30.53,10.0,East,6.9,-,N/A,,Clear,100,2013-01-24 20:35:00
2:55 PM,23.0,-0.4,36,30.53,10.0,East,10.4,-,N/A,,Clear,90,2013-01-24 20:55:00
3:15 PM,23.0,-0.4,36,30.53,10.0,ESE,6.9,-,N/A,,Clear,110,2013-01-24 21:15:00
3:35 PM,23.0,1.4,39,30.51,10.0,East,8.1,-,N/A,,Clear,80,2013-01-24 21:35:00
3:55 PM,23.0,-0.4,36,30.52,10.0,East,10.4,-,N/A,,Clear,90,2013-01-24 21:55:00
4:15 PM,23.0,-0.4,36,30.52,10.0,East,8.1,-,N/A,,Clear,80,2013-01-24 22:15:00
4:55 PM,21.2,1.4,42,30.49,10.0,ENE,11.5,-,N/A,,Clear,70,2013-01-24 22:55:00
5:15 PM,21.2,3.2,46,30.50,10.0,East,10.4,-,N/A,,Clear,90,2013-01-24 23:15:00
5:35 PM,21.2,3.2,46,30.50,10.0,East,8.1,-,N/A,,Scattered Clouds,80,2013-01-24 23:35:00
5:55 PM,21.2,3.2,46,30.50,10.0,East,10.4,-,N/A,,Scattered Clouds,90,2013-01-24 23:55:00
6:15 PM,21.2,3.2,46,30.49,10.0,East,8.1,-,N/A,,Clear,100,2013-01-25 00:15:00
6:35 PM,21.2,3.2,46,30.48,10.0,East,8.1,-,N/A,,Clear,100,2013-01-25 00:35:00
6:55 PM,21.2,3.2,46,30.48,10.0,ESE,11.5,-,N/A,,Clear,110,2013-01-25 00:55:00
7:15 PM,21.2,3.2,46,30.46,10.0,East,10.4,-,N/A,,Scattered Clouds,100,2013-01-25 01:15:00
7:35 PM,21.2,5.0,50,30.46,10.0,ESE,9.2,-,N/A,,Scattered Clouds,110,2013-01-25 01:35:00
7:55 PM,21.2,5.0,50,30.45,10.0,ESE,10.4,-,N/A,,Scattered Clouds,110,2013-01-25 01:55:00
8:15 PM,21.2,5.0,50,30.44,10.0,ESE,10.4,-,N/A,,Clear,110,2013-01-25 02:15:00
8:35 PM,21.2,5.0,50,30.44,10.0,ESE,10.4,-,N/A,,Clear,120,2013-01-25 02:35:00
8:55 PM,21.2,5.0,50,30.42,10.0,ESE,11.5,-,N/A,,Clear,110,2013-01-25 02:55:00
9:15 PM,21.2,5.0,50,30.41,10.0,ESE,11.5,17.3,N/A,,Clear,110,2013-01-25 03:15:00
9:35 PM,21.2,6.8,54,30.42,10.0,ESE,10.4,-,N/A,,Scattered Clouds,110,2013-01-25 03:35:00
9:55 PM,21.2,6.8,54,30.42,10.0,ESE,11.5,-,N/A,,Clear,110,2013-01-25 03:55:00
10:15 PM,21.2,8.6,58,30.41,10.0,ESE,11.5,-,N/A,,Clear,110,2013-01-25 04:15:00
10:35 PM,21.2,8.6,58,30.40,10.0,ESE,11.5,-,N/A,,Clear,110,2013-01-25 04:35:00
10:55 PM,21.2,8.6,58,30.39,10.0,ESE,10.4,16.1,N/A,,Clear,110,2013-01-25 04:55:00
11:15 PM,21.2,8.6,58,30.36,10.0,ESE,10.4,-,N/A,,Clear,120,2013-01-25 05:15:00
11:35 PM,21.2,8.6,58,30.36,10.0,ESE,10.4,-,N/A,,Clear,120,2013-01-25 05:35:00
11:55 PM,21.2,8.6,58,30.36,10.0,ESE,10.4,-,N/A,,Clear,110,2013-01-25 05:55:00